Location: Hepcat Sky Observatory
(29.9800°N, 95.6500°W)
Time: 06:03:58
(UTC-05:00)

Daily predictions for brighter satellites

Satellite Brightness Start Highest point End
(mag) Time Altitude Azimuth Time Altitude Azimuth Time Altitude Azimuth
METEOR-M 4.2 20:32:45 10° SSE 20:38:05 79° ENE 20:43:27 10° N
Cosmos 1844 Rocket 2.7 20:32:56 10° NNW 20:38:36 83° ENE 20:44:13 10° SSE
Cosmos 1980 4.2 20:33:42 10° SSW 20:39:20 67° WNW 20:44:59 10° NNE
Cosmos 1844 3.9 20:34:59 10° NNW 20:40:43 63° ENE 20:46:26 10° SSE
BREEZE-M DEB (TANK) 3.9 20:29:20 10° SW 20:41:08 61° SE 20:44:30 10° ENE
ERS-1 Rocket 4.4 20:38:07 10° ESE 20:41:43 20° ENE 20:45:19 10° NNE
FENGYUN 3A 4.2 20:38:56 10° SE 20:43:52 39° ENE 20:48:50 10° N
Cosmos 1975 2.8 20:42:39 10° N 20:46:40 85° E 20:50:39 10° S
Cosmos 1420 Rocket 4.0 20:42:13 10° NNW 20:47:32 84° ENE 20:52:45 10° SSE
H-2A R/B 3.7 20:48:41 10° ESE 20:51:29 17° ENE 20:54:19 10° NNE
Hubble Space Telescope 2.1 20:48:50 10° W 20:52:25 28° SSW 20:56:02 10° SE
CZ-4B DEB 4.0 20:51:28 10° S 20:54:40 45° W 20:57:53 10° NNW
ATLAS CENTAUR R/B 3.2 20:53:59 10° SW 20:58:38 44° WNW 21:03:27 10° NNE
SL-24 R/B - RUBIN 2 4.4 20:54:58 10° SW 21:00:03 72° WNW 21:05:53 10° NNE
Cosmos 2237 Rocket 3.5 20:56:37 10° SW 21:01:57 45° WNW 21:07:20 10° N
Resurs 01 Rocket 3.8 20:59:00 10° SSW 21:02:45 27° W 21:06:30 10° NW
ATLAS 3B CENTAUR R/B 3.7 21:00:26 10° WSW 21:03:38 21° S 21:09:25 11° SE
RESURS DK-1 4.1 21:00:28 10° NW 21:04:07 31° WSW 21:07:45 10° SSW
Atlas Centaur 2 3.1 21:00:41 10° SW 21:07:42 54° SSE 21:15:51 10° E
GEOS 3 Rocket 3.8 21:02:56 12° SE 21:07:47 59° NE 21:12:56 10° NNW
Tiangong 1 3.7 21:09:37 10° WSW 21:11:03 12° SW 21:12:28 10° SSW
Cosmos 2278 Rocket 2.2 21:10:01 10° NNW 21:15:43 85° ENE 21:21:05 12° SSE
Cosmos 1025 Rocket 3.4 21:11:36 10° SSW 21:15:57 69° W 21:20:20 10° N
Cosmos 494 Rocket 3.9 21:11:04 10° S 21:16:09 74° ESE 21:21:15 10° NNE
PSLV R/B 3.5 21:13:27 10° WSW 21:16:57 75° NNW 21:20:30 10° ENE
CZ-2D R/B 3.7 21:13:08 10° S 21:16:59 64° W 21:20:52 10° NNW
Aureole 2 Rocket 3.0 21:13:53 10° S 21:17:51 46° ESE 21:21:32 10° NNE
USA 186 1.8 21:15:27 10° S 21:18:28 68° W 21:21:18 10° NNW
COSMOS 2455 3.8 21:13:57 10° SSE 21:18:42 25° ESE 21:23:28 10° NE
Cosmos 2228 4.3 21:16:17 10° NNE 21:19:53 24° E 21:21:31 20° ESE
Cosmos 1892 Rocket 3.5 21:15:46 10° S 21:20:11 86° E 21:24:39 10° N
Cosmos 1939 Rocket 4.1 21:18:34 19° ESE 21:20:28 27° ENE 21:23:59 10° NNE
ISS -1.5 21:18:13 10° S 21:19:19 16° SSE 21:19:19 16° SSE
CZ-4 DEB 3.1 21:18:35 10° S 21:21:46 64° W 21:24:59 10° NNW
Intelsat 5-2 Rocket 4.3 21:26:58 10° SSW 21:27:45 11° SSW 21:27:45 11° SSW
SPOT 5 4.0 21:26:56 19° E 21:28:24 23° ENE 21:31:49 10° NNE
SL-16 R/B 2.7 21:23:22 10° SSW 21:28:57 64° WNW 21:34:34 10° NNE
Lacrosse 5 rocket 4.5 21:30:49 10° W 21:33:09 15° NW 21:35:32 10° N
Cosmos 1666 3.6 21:30:31 10° NNE 21:34:01 31° E 21:34:49 28° ESE
Nimbus 7 Rocket 4.4 21:29:04 10° NNE 21:34:58 67° ESE 21:40:48 10° S
Cosmos 1500 4.5 21:31:34 10° NNW 21:35:13 40° W 21:38:52 10° SSW
Tsikada Rocket 4.4 21:33:55 18° SSE 21:38:20 44° E 21:44:20 10° NNE
OTV 4 1.2 21:36:47 10° W 21:39:34 37° SSW 21:40:00 35° S
Meteor 1-23 Rocket 4.4 21:38:03 10° SSW 21:43:39 73° W 21:49:20 10° N
Cosmos 1331 Rocket 3.9 21:39:23 10° N 21:44:34 72° ENE 21:47:14 29° SSE
Cosmos 1743 3.3 21:41:49 10° NNW 21:45:35 56° W 21:48:15 18° SSW
Okean 2 4.0 21:44:52 10° SSW 21:48:58 59° W 21:53:06 10° N
ALOS 3.7 21:45:41 10° SSW 21:49:56 35° W 21:54:11 10° NNW
Cosmos 1726 Rocket 4.0 21:46:40 10° NNW 21:51:03 59° W 21:54:12 18° SSW
SeaSat 1 3.1 21:50:09 30° ESE 21:51:47 39° ENE 21:56:22 10° N
Cosmos 1302 Rocket 4.3 21:48:49 10° N 21:53:53 48° ENE 21:55:30 36° ESE
Cosmos 2285 Rocket 3.9 21:48:26 10° NNW 21:54:46 75° ENE 21:58:06 30° SSE
Cosmos 1603 3.6 21:52:08 10° SSW 21:57:45 81° ESE 22:03:22 10° NNE
CZ-4B R/B 3.6 21:56:55 10° NNE 22:01:56 56° ESE 22:03:35 39° SSE
Cosmos 2058 Rocket 3.5 21:57:56 10° NNW 22:02:13 58° W 22:04:29 26° SSW
Cosmos 1602 Rocket 3.5 22:01:25 30° S 22:03:35 88° W 22:08:05 10° N
UNK 4.1 21:58:44 10° NNE 22:04:13 77° ESE 22:08:12 21° S
APEX 4.0 22:02:07 10° N 22:06:27 58° ENE 22:07:38 46° ESE
CZ-2C R/B 3.3 22:06:26 14° WSW 22:06:35 14° W 22:07:58 10° WNW
Cosmos 1464 Rocket 4.1 22:01:22 10° N 22:07:30 75° W 22:11:28 23° S
PSLV R/B 3.9 22:09:29 47° N 22:09:29 47° N 22:11:49 10° N
Meteor 2-9 Rocket 4.3 22:03:10 10° N 22:08:53 81° W 22:11:49 31° S
Delta 168 3.5 22:07:13 10° WSW 22:10:31 44° S 22:10:31 44° S
Cosmos 1461 4.0 22:07:32 10° N 22:11:08 29° NE 22:11:08 29° NE
Cosmos 1816 Rocket 4.4 22:14:37 35° S 22:17:29 74° E 22:23:49 10° N
Cosmos 2297 4.3 22:12:54 10° NNW 22:18:27 52° WSW 22:21:02 30° SSW
ATLAS 3B R/B 3.1 22:16:53 36° SSE 22:19:28 48° ESE 22:26:42 10° NE
ERS-1 Rocket 4.3 22:16:55 17° SSW 22:20:11 34° W 22:24:45 10° NNW
Cosmos 1812 Rocket 3.8 22:15:55 10° N 22:19:55 54° ENE 22:19:55 54° ENE
Envisat 3.1 22:19:51 44° S 22:21:27 72° WSW 22:26:31 10° NNW
Cosmos 1943 3.4 22:23:34 50° E 22:23:34 50° E 22:28:49 10° NNE
YAOGAN 6 3.7 22:24:55 36° NNE 22:24:55 36° NNE 22:27:27 10° N
Cosmos 2034 Rocket 4.1 22:19:08 10° N 22:25:28 73° W 22:28:23 34° S
H-2A R/B 3.7 22:25:28 21° SW 22:27:14 28° W 22:30:54 10° NW
USA 234 3.7 22:30:35 37° E 22:32:43 50° NE 22:38:59 10° NNW
Centaur D AC-29 4.1 22:25:34 10° W 22:32:58 16° WSW 22:35:57 12° SSW
Abrixas rocket 4.3 22:34:37 10° NNW 22:36:37 27° N 22:36:37 27° N
MetOp-A 4.1 22:37:41 63° SSW 22:38:30 77° WSW 22:43:53 10° NNW
USA 81 4.4 22:33:46 10° N 22:38:24 51° ENE 22:38:24 51° ENE
Atlas Centaur 2 2.9 22:49:29 10° W 22:57:31 87° S 23:00:55 42° E
H-2A R/B 3.2 22:59:58 32° NE 22:59:58 32° NE 23:03:13 10° N
Meteor 2-12 Rocket 4.4 22:52:58 10° N 22:59:02 72° W 22:59:40 66° SW
COSMOS 2455 4.1 22:58:48 10° SW 23:04:20 38° WNW 23:09:55 10° N
SPOT 1/Viking Rocket 4.0 23:07:22 55° W 23:07:22 55° W 23:12:08 10° NNW
Milstar 3 Cent rocket 3.9 23:05:42 10° W 23:08:18 20° WSW 23:08:18 20° WSW
ARGOS 3.4 23:10:54 66° WNW 23:10:54 66° WNW 23:15:52 10° NNW
Cosmos 2369 Rocket 2.9 23:08:43 10° N 23:13:08 44° NNE 23:13:08 44° NNE
Lacrosse 4 Rocket 4.0 23:31:19 16° N 23:31:19 16° N 23:32:16 10° N
SeaSat 1 4.5 23:29:57 19° W 23:29:57 19° W 23:32:52 10° WNW
Terra 3.3 23:35:13 34° N 23:35:13 34° N 23:37:53 10° NNW
